SCP
0 0 0 0 0 0 0 0 0 0 0 0 0 0 0 0 0 0 0 0 0 0 0 0 0 0 0 0 0 0 0 0 0 0 0 0 0 0 0 0 0 0 0
0 0 0 0 0 0 0 0 0 0 0 0 0 0 0 0 0 0 0 0 0 0 0 0 0 0 0 0 0 0 0 0 0 0 0 0 0 0 0 0 0 0 0
0 0 0 0 0 0 0 0 0 0 0 0 0 0 0 0 0 0 0 0 0 0 0 0 0 0 0 0 0 0 0 0 0 0 0 0 0 0 0 0 0 0 0
0 0 0 0 0 0 0 0 0 0 0 0 0 0 0 0 0 0 0 0 0 0 0 0 0 0 0 0 0 0 0 0 0 0 0 0 0 0 0 0 0 0 0
0 0 0 0 0 0 0 0 0 0 0 0 0 0 0 0 0 0 0 0 0 0 0 0 0 0 0 0 0 0 0 0 0 0 0 0 0 0 0 0 0 0 0
0 0 0 0 0 0 0 0 0 0 0 0 0 0 0 0 0 0 0 0 0 0 0 0 0 0 0 0 0 0 0 0 0 0 0 0 0 0 0 0 0 0 0
0 0 0 0 0 0 0 0 0 0 0 0 0 0 0 0 0 0 0 0 0 0 0 0 0 0 0 0 0 0 0 0 0 0 0 0 0 0 0 0 0 0 0
0 0 0 0 0 0 0 0 0 0 0 0 0 0 0 0 0 0 0 0 0 0 0 0 0 0 0 0 0 0 0 0 0 0 0 0 0 0 0 0 0 0 0
0 0 0 0 0 0 0 0 0 0 0 0 0 0 0 0 0 0 0 0 0 0 0 0 0 0 0 0 0 0 0 0 0 0 0 0 0 0 0 0 0 0 0
0 0 0 0 0 0 0 0 0 0 0 0 0 0 0 0 0 0 0 0 0 0 0 0 0 0 0 0 0 0 0 0 0 0 0 0 0 0 0 0 0 0 0
0 0 0 0 0 0 0 0 0 0 0 0 0 0 0 0 0 0 0 0 0 0 0 0 0 0 0 0 0 0 0 0 0 0 0 0 0 0 0 0 0 0 0
0 0 0 0 0 0 0 0 0 0 0 0 0 0 0 0 0 0 0 0 0 0 0 0 0 0 0 0 0 0 0 0 0 0 0 0 0 0 0 0 0 0 0
0 0 0 0 0 0 0 0 0 0 0 0 0 0 0 0 0 0 0 0 0 0 0 0 0 0 0 0 0 0 0 0 0 0 0 0 0 0 0 0 0 0 0
0 0 0 0 0 0 0 0 0 0 0 0 0 0 0 0 0 0 0 0 0 0 0 0 0 0 0 0 0 0 0 0 0 0 0 0 0 0 0 0 0 0 0
0 0 0 0 0 0 0 0 0 0 0 0 0 0 0 0 0 0 0 0 0 0 0 0 0 0 0 0 0 0 0 0 0 0 0 0 0 0 0 0 0 0 0
0 0 0 0 0 0 0 0 0 0 0 0 0 0 0 0 0 0 0 0 0 0 0 0 0 0 0 0 0 0 0 0 0 0 0 0 0 0 0 0 0 0 0
0 0 0 0 0 0 0 0 0 0 0 0 0 0 0 0 0 0 0 0 0 0 0 0 0 0 0 0 0 0 0 0 0 0 0 0 0 0 0 0 0 0 0
0 0 0 0 0 0 0 0 0 0 0 0 0 0 0 0 0 0 0 0 0 0 0 0 0 0 0 0 0 0 0 0 0 0 0 0 0 0 0 0 0 0 0
0 0 0 0 0 0 0 0 0 0 0 0 0 0 0 0 0 0 0 0 0 0 0 0 0 0 0 0 0 0 0 0 0 0 0 0 0 0 0 0 0 0 0
0 0 0 0 0 0 0 0 0 0 0 0 0 0 0 0 0 0 0 0 0 0 0 0 0 0 0 0 0 0 0 0 0 0 0 0 0 0 0 0 0 0 0
0 0 0 0 0 0 0 0 0 0 0 0 0 0 0 0 0 0 0 0 0 0 0 0 0 0 0 0 0 0 0 0 0 0 0 0 0 0 0 0 0 0 0
0 0 0 0 0 0 0 0 0 0 0 0 0 0 0 0 0 0 0 0 0 0 0 0 0 0 0 0 0 0 0 0 0 0 0 0 0 0 0 0 0 0 0
0 0 0 0 0 0 0 0 0 0 0 0 0 0 0 0 0 0 0 0 0 0 0 0 0 0 0 0 0 0 0 0 0 0 0 0 0 0 0 0 0 0 0
0 0 0 0 0 0 0 0 0 0 0 0 0 0 0 0 0 0 0 0 0 0 0 0 0 0 0 0 0 0 0 0 0 0 0 0 0 0 0 0 0 0 0
0 0 0 0 0 0 0 0 0 0 0 0 0 0 0 0 0 0 0 0 0 0 0 0 0 0 0 0 0 0 0 0 0 0 0 0 0 0 0 0 0 0 0
0 0 0 0 0 0 0 0 0 0 0 0 0 0 0 0 0 0 0 0 0 0 0 0 0 0 0 0 0 0 0 0 0 0 0 0 0 0 0 0 0 0 0
Wind_Speed_500mb
36 34 32 29 26 25 23 23 24 23 23 23 24 26 28 29 29 31 32 35 38 38 38 35 35 37 35 32 36 32 28 35 36 38 38 39 40 44 45 41 40 45 43
38 35 33 30 27 25 24 23 22 21 22 24 27 29 31 32 32 33 33 33 35 37 35 31 29 20 17 25 29 29 34 36 40 35 44 46 47 47 45 47 47 48 50
41 38 36 32 28 27 25 23 23 24 26 28 30 32 33 35 34 34 34 33 33 33 30 32 27 20 18 22 21 23 21 20 20 43 48 50 49 48 46 45 44 42 42
43 40 37 34 31 29 26 25 26 28 28 31 32 33 34 34 35 35 34 32 32 32 29 30 29 25 20 19 28 26 24 26 21 31 36 40 40 40 39 37 39 38 37
44 41 39 36 33 31 29 29 30 30 32 34 34 34 33 33 34 34 33 32 31 30 29 28 25 23 25 29 31 24 15 22 22 23 21 28 35 35 36 35 35 35 36
48 46 43 40 37 35 34 32 32 33 34 36 36 34 33 33 32 31 31 30 28 26 26 24 23 23 22 23 22 12 18 19 23 21 21 20 23 28 32 34 33 32 33
52 49 45 44 41 38 36 35 35 35 34 35 35 35 30 30 30 27 26 26 24 22 21 22 23 24 25 24 25 22 19 18 21 24 25 27 25 21 20 19 20 26 28
56 51 48 45 42 40 39 38 37 36 35 33 31 33 16 17 20 21 22 21 20 20 20 22 24 25 25 26 29 34 34 32 31 29 27 26 27 28 23 19 17 16 16
59 54 52 48 45 43 42 41 39 38 37 35 32 23 12 10 8 12 17 19 20 21 20 23 23 24 25 27 29 32 32 33 36 35 32 31 31 26 24 20 19 17 15
59 56 54 51 48 46 44 42 41 41 40 36 33 31 31 33 15 9 17 22 25 26 24 26 26 27 28 27 28 31 33 33 33 31 31 30 30 27 28 23 21 18 16
61 57 55 51 49 46 43 43 42 40 40 38 33 31 30 31 33 32 18 24 29 31 31 31 30 32 33 33 33 32 34 35 32 30 30 31 31 30 29 27 23 19 20
63 61 56 51 48 45 43 43 42 39 38 38 35 31 32 29 27 33 34 33 30 32 34 32 31 31 38 42 42 42 43 39 32 32 31 33 33 33 32 32 31 28 25
69 63 56 51 45 43 43 42 40 38 36 36 35 33 34 36 36 35 33 35 39 38 38 38 37 37 37 39 40 42 42 38 34 35 35 36 36 36 34 32 33 35 35
63 56 52 48 46 44 42 41 39 37 35 35 36 36 37 39 40 42 44 39 34 36 36 38 34 39 40 36 36 35 35 32 31 33 35 33 32 33 32 34 35 35 36
55 54 52 49 46 44 42 41 39 38 37 36 36 38 40 39 37 37 39 38 36 22 18 22 26 28 28 31 35 30 29 30 30 28 27 26 26 26 28 27 27 26 25
58 56 53 49 48 45 43 42 41 40 40 41 39 38 39 38 37 37 37 36 36 39 25 16 19 24 23 28 31 28 29 30 27 24 22 21 21 21 20 18 16 16 16
55 53 52 50 48 45 44 43 42 42 44 44 42 42 42 40 39 38 40 39 39 41 45 46 34 28 33 32 29 27 28 26 24 21 19 18 16 14 15 15 15 14 14
53 52 51 50 48 47 46 44 44 46 47 47 46 47 45 41 42 39 41 40 38 41 42 46 44 41 48 37 32 29 27 25 24 22 19 19 19 18 18 18 19 19 19
53 53 52 51 48 47 46 45 44 44 43 43 41 41 38 36 39 38 39 39 38 39 38 42 42 35 33 26 34 35 29 27 27 26 24 24 25 26 24 22 23 25 26
52 52 50 49 48 47 46 45 43 42 40 38 37 39 37 37 38 36 37 39 38 41 41 43 38 35 28 25 27 26 29 29 32 33 30 29 30 32 32 30 29 29 30
47 48 48 50 48 45 44 42 42 39 38 37 35 36 37 37 37 38 39 41 40 42 42 41 39 33 28 26 24 26 27 29 34 36 34 34 34 36 38 37 34 33 35
46 48 49 49 45 44 40 38 38 37 36 37 35 33 33 34 36 38 36 41 46 46 43 39 36 35 25 22 24 27 30 31 31 31 33 35 38 37 38 40 38 39 39
43 45 46 48 46 42 41 40 39 39 39 37 34 32 33 35 35 37 38 42 42 46 47 44 45 41 34 27 28 32 34 38 41 38 42 44 39 40 40 45 43 42 42
42 44 45 45 45 43 42 42 41 42 44 42 40 36 35 36 37 39 41 47 50 51 49 47 47 41 39 33 37 37 42 46 48 48 45 53 47 41 38 40 42 45 45
37 38 40 40 41 40 41 42 43 45 46 46 44 40 39 40 39 37 38 45 46 51 50 48 48 48 44 42 43 47 53 51 56 56 47 46 55 48 42 41 45 49 46
35 35 35 36 37 37 36 36 35 39 42 43 41 39 36 36 33 35 40 46 52 53 50 47 49 50 49 49 47 51 51 52 51 53 51 45 43 35 24 34 33 34 39
Wind_Direction_500mb
228 231 235 238 242 248 257 267 275 279 282 288 291 293 295 295 292 289 286 285 284 281 279 277 270 266 264 256 249 237 252 255 257 255 256 256 260 262 261 260 258 261 272
226 231 236 239 243 250 257 263 267 273 283 288 291 293 294 293 293 292 290 288 286 285 283 276 264 263 261 259 262 263 244 256 249 248 253 256 258 261 263 265 266 262 267
229 230 232 236 242 249 253 258 268 277 284 288 291 294 294 293 292 290 288 287 286 285 280 271 271 238 231 235 218 219 224 243 262 263 260 262 263 262 262 263 266 268 266
228 230 232 233 237 243 250 258 268 276 283 286 289 291 292 293 292 290 287 284 281 280 275 268 264 262 232 225 232 232 238 246 262 268 266 261 261 264 267 261 259 262 263
230 232 234 236 239 243 249 258 267 275 281 285 288 290 289 287 286 285 283 279 277 277 272 267 265 261 254 236 225 231 242 241 253 264 260 263 259 255 257 261 260 259 262
230 231 233 236 240 242 249 259 268 274 281 287 289 289 288 285 283 279 274 273 273 272 268 265 264 266 264 260 253 223 227 240 250 254 258 263 268 257 253 253 257 261 263
232 232 233 237 241 246 253 260 268 275 282 288 293 292 290 284 276 271 267 268 268 264 264 267 268 269 267 259 246 238 220 223 244 263 269 266 262 265 263 259 260 258 259
230 232 235 238 243 249 256 262 267 273 278 282 283 292 291 281 265 261 262 260 254 255 265 273 275 272 264 256 249 250 255 260 262 267 274 276 276 273 263 261 262 268 271
228 230 234 237 242 249 256 261 267 273 276 278 277 265 270 252 280 259 253 249 242 251 262 272 274 271 263 258 257 262 263 265 270 272 273 275 274 267 264 261 255 262 266
229 231 234 238 242 248 255 261 266 272 273 271 267 263 252 252 260 267 246 239 241 250 259 263 266 264 260 259 261 264 268 270 272 274 275 275 271 268 258 255 258 263 266
230 232 236 239 242 249 253 260 266 268 269 267 261 258 255 250 248 247 259 247 246 246 249 256 264 264 259 259 262 266 271 273 274 274 275 276 272 264 261 253 254 246 246
230 233 235 237 243 248 256 260 261 261 263 263 260 254 251 246 248 245 246 249 252 248 248 257 261 265 260 258 260 261 265 270 274 279 279 276 272 266 262 260 255 252 248
229 231 234 239 243 251 255 257 256 256 256 258 258 255 249 245 244 246 248 252 248 246 248 253 259 272 272 266 260 258 259 264 272 278 279 275 269 262 261 259 259 260 260
234 234 236 237 244 249 252 253 253 254 252 253 256 258 253 246 242 241 243 244 253 247 250 249 260 266 273 263 262 257 257 266 273 277 278 276 269 261 257 257 259 262 265
229 229 233 241 245 247 248 249 250 251 254 254 258 259 253 248 244 244 241 236 237 251 256 250 240 258 263 257 257 258 261 269 276 278 275 273 267 263 258 259 259 262 263
222 231 238 243 243 244 245 248 251 254 255 257 258 256 251 248 245 244 243 237 233 241 243 248 236 245 257 257 260 253 259 267 272 269 267 267 266 261 257 255 257 262 262
228 235 241 242 242 244 246 249 252 254 255 258 259 260 252 247 245 243 245 242 238 236 245 248 241 244 249 256 248 243 252 255 258 255 256 253 248 250 248 249 255 262 264
231 235 238 241 244 247 249 252 255 256 256 257 260 256 250 246 245 243 244 244 242 243 244 254 258 255 255 251 249 257 248 250 250 248 245 243 246 251 252 253 256 259 265
231 234 237 241 245 249 252 254 254 252 251 251 250 250 249 242 243 240 242 243 245 249 245 250 259 259 261 246 240 250 247 252 253 253 251 253 254 252 253 257 261 263 265
231 235 239 242 245 246 250 251 248 247 248 249 248 248 245 243 245 242 240 243 243 244 244 246 248 255 246 228 228 240 248 248 251 254 256 257 260 259 258 264 271 271 269
236 238 240 241 242 245 249 249 248 247 250 250 247 247 245 242 244 243 241 245 243 240 239 241 245 240 232 220 227 243 245 242 243 250 258 259 258 256 257 260 269 272 270
239 239 239 241 244 245 247 248 249 249 248 249 248 247 246 244 243 240 242 247 243 238 235 238 244 244 234 228 230 244 250 250 258 249 252 250 256 256 258 262 270 272 269
238 239 241 242 244 245 246 247 247 249 248 248 249 247 245 246 245 243 239 240 243 240 238 243 245 247 250 250 256 252 255 256 257 255 261 258 253 258 260 268 269 265 264
239 239 240 244 246 246 245 245 246 248 251 252 250 250 250 251 249 246 246 244 237 238 240 245 251 248 250 246 245 255 257 258 260 261 265 272 268 265 263 264 263 263 268
242 244 244 245 248 250 250 248 247 247 251 253 255 255 256 256 255 257 251 243 237 238 242 245 253 262 261 255 250 251 254 265 268 267 268 268 272 278 273 263 259 261 261
242 244 247 248 250 251 251 250 246 249 253 256 259 261 261 265 268 265 252 250 249 249 249 249 253 255 258 260 259 259 256 255 262 272 272 267 273 280 286 277 264 253 254
Wind_Speed_850mb
36 34 32 29 26 25 23 23 24 23 23 23 24 26 28 29 29 31 32 35 38 38 38 35 35 37 35 32 36 32 28 35 36 38 38 39 40 44 45 41 40 45 43
38 35 33 30 27 25 24 23 22 21 22 24 27 29 31 32 32 33 33 33 35 37 35 31 29 20 17 25 29 29 34 36 40 35 44 46 47 47 45 47 47 48 50
41 38 36 32 28 27 25 23 23 24 26 28 30 32 33 35 34 34 34 33 33 33 30 32 27 20 18 22 21 23 21 20 20 43 48 50 49 48 46 45 44 42 42
43 40 37 34 31 29 26 25 26 28 28 31 32 33 34 34 35 35 34 32 32 32 29 30 29 25 20 19 28 26 24 26 21 31 36 40 40 40 39 37 39 38 37
44 41 39 36 33 31 29 29 30 30 32 34 34 34 33 33 34 34 33 32 31 30 29 28 25 23 25 29 31 24 15 22 22 23 21 28 35 35 36 35 35 35 36
48 46 43 40 37 35 34 32 32 33 34 36 36 34 33 33 32 31 31 30 28 26 26 24 23 23 22 23 22 12 18 19 23 21 21 20 23 28 32 34 33 32 33
52 49 45 44 41 38 36 35 35 35 34 35 35 35 30 30 30 27 26 26 24 22 21 22 23 24 25 24 25 22 19 18 21 24 25 27 25 21 20 19 20 26 28
56 51 48 45 42 40 39 38 37 36 35 33 31 33 16 17 20 21 22 21 20 20 20 22 24 25 25 26 29 34 34 32 31 29 27 26 27 28 23 19 17 16 16
59 54 52 48 45 43 42 41 39 38 37 35 32 23 12 10 8 12 17 19 20 21 20 23 23 24 25 27 29 32 32 33 36 35 32 31 31 26 24 20 19 17 15
59 56 54 51 48 46 44 42 41 41 40 36 33 31 31 33 15 9 17 22 25 26 24 26 26 27 28 27 28 31 33 33 33 31 31 30 30 27 28 23 21 18 16
61 57 55 51 49 46 43 43 42 40 40 38 33 31 30 31 33 32 18 24 29 31 31 31 30 32 33 33 33 32 34 35 32 30 30 31 31 30 29 27 23 19 20
63 61 56 51 48 45 43 43 42 39 38 38 35 31 32 29 27 33 34 33 30 32 34 32 31 31 38 42 42 42 43 39 32 32 31 33 33 33 32 32 31 28 25
69 63 56 51 45 43 43 42 40 38 36 36 35 33 34 36 36 35 33 35 39 38 38 38 37 37 37 39 40 42 42 38 34 35 35 36 36 36 34 32 33 35 35
63 56 52 48 46 44 42 41 39 37 35 35 36 36 37 39 40 42 44 39 34 36 36 38 34 39 40 36 36 35 35 32 31 33 35 33 32 33 32 34 35 35 36
55 54 52 49 46 44 42 41 39 38 37 36 36 38 40 39 37 37 39 38 36 22 18 22 26 28 28 31 35 30 29 30 30 28 27 26 26 26 28 27 27 26 25
58 56 53 49 48 45 43 42 41 40 40 41 39 38 39 38 37 37 37 36 36 39 25 16 19 24 23 28 31 28 29 30 27 24 22 21 21 21 20 18 16 16 16
55 53 52 50 48 45 44 43 42 42 44 44 42 42 42 40 39 38 40 39 39 41 45 46 34 28 33 32 29 27 28 26 24 21 19 18 16 14 15 15 15 14 14
53 52 51 50 48 47 46 44 44 46 47 47 46 47 45 41 42 39 41 40 38 41 42 46 44 41 48 37 32 29 27 25 24 22 19 19 19 18 18 18 19 19 19
53 53 52 51 48 47 46 45 44 44 43 43 41 41 38 36 39 38 39 39 38 39 38 42 42 35 33 26 34 35 29 27 27 26 24 24 25 26 24 22 23 25 26
52 52 50 49 48 47 46 45 43 42 40 38 37 39 37 37 38 36 37 39 38 41 41 43 38 35 28 25 27 26 29 29 32 33 30 29 30 32 32 30 29 29 30
47 48 48 50 48 45 44 42 42 39 38 37 35 36 37 37 37 38 39 41 40 42 42 41 39 33 28 26 24 26 27 29 34 36 34 34 34 36 38 37 34 33 35
46 48 49 49 45 44 40 38 38 37 36 37 35 33 33 34 36 38 36 41 46 46 43 39 36 35 25 22 24 27 30 31 31 31 33 35 38 37 38 40 38 39 39
43 45 46 48 46 42 41 40 39 39 39 37 34 32 33 35 35 37 38 42 42 46 47 44 45 41 34 27 28 32 34 38 41 38 42 44 39 40 40 45 43 42 42
42 44 45 45 45 43 42 42 41 42 44 42 40 36 35 36 37 39 41 47 50 51 49 47 47 41 39 33 37 37 42 46 48 48 45 53 47 41 38 40 42 45 45
37 38 40 40 41 40 41 42 43 45 46 46 44 40 39 40 39 37 38 45 46 51 50 48 48 48 44 42 43 47 53 51 56 56 47 46 55 48 42 41 45 49 46
35 35 35 36 37 37 36 36 35 39 42 43 41 39 36 36 33 35 40 46 52 53 50 47 49 50 49 49 47 51 51 52 51 53 51 45 43 35 24 34 33 34 39
Wind_Direction_850mb
228 231 235 238 242 248 257 267 275 279 282 288 291 293 295 295 292 289 286 285 284 281 279 277 270 266 264 256 249 237 252 255 257 255 256 256 260 262 261 260 258 261 272
226 231 236 239 243 250 257 263 267 273 283 288 291 293 294 293 293 292 290 288 286 285 283 276 264 263 261 259 262 263 244 256 249 248 253 256 258 261 263 265 266 262 267
229 230 232 236 242 249 253 258 268 277 284 288 291 294 294 293 292 290 288 287 286 285 280 271 271 238 231 235 218 219 224 243 262 263 260 262 263 262 262 263 266 268 266
228 230 232 233 237 243 250 258 268 276 283 286 289 291 292 293 292 290 287 284 281 280 275 268 264 262 232 225 232 232 238 246 262 268 266 261 261 264 267 261 259 262 263
230 232 234 236 239 243 249 258 267 275 281 285 288 290 289 287 286 285 283 279 277 277 272 267 265 261 254 236 225 231 242 241 253 264 260 263 259 255 257 261 260 259 262
230 231 233 236 240 242 249 259 268 274 281 287 289 289 288 285 283 279 274 273 273 272 268 265 264 266 264 260 253 223 227 240 250 254 258 263 268 257 253 253 257 261 263
232 232 233 237 241 246 253 260 268 275 282 288 293 292 290 284 276 271 267 268 268 264 264 267 268 269 267 259 246 238 220 223 244 263 269 266 262 265 263 259 260 258 259
230 232 235 238 243 249 256 262 267 273 278 282 283 292 291 281 265 261 262 260 254 255 265 273 275 272 264 256 249 250 255 260 262 267 274 276 276 273 263 261 262 268 271
228 230 234 237 242 249 256 261 267 273 276 278 277 265 270 252 280 259 253 249 242 251 262 272 274 271 263 258 257 262 263 265 270 272 273 275 274 267 264 261 255 262 266
229 231 234 238 242 248 255 261 266 272 273 271 267 263 252 252 260 267 246 239 241 250 259 263 266 264 260 259 261 264 268 270 272 274 275 275 271 268 258 255 258 263 266
230 232 236 239 242 249 253 260 266 268 269 267 261 258 255 250 248 247 259 247 246 246 249 256 264 264 259 259 262 266 271 273 274 274 275 276 272 264 261 253 254 246 246
230 233 235 237 243 248 256 260 261 261 263 263 260 254 251 246 248 245 246 249 252 248 248 257 261 265 260 258 260 261 265 270 274 279 279 276 272 266 262 260 255 252 248
229 231 234 239 243 251 255 257 256 256 256 258 258 255 249 245 244 246 248 252 248 246 248 253 259 272 272 266 260 258 259 264 272 278 279 275 269 262 261 259 259 260 260
234 234 236 237 244 249 252 253 253 254 252 253 256 258 253 246 242 241 243 244 253 247 250 249 260 266 273 263 262 257 257 266 273 277 278 276 269 261 257 257 259 262 265
229 229 233 241 245 247 248 249 250 251 254 254 258 259 253 248 244 244 241 236 237 251 256 250 240 258 263 257 257 258 261 269 276 278 275 273 267 263 258 259 259 262 263
222 231 238 243 243 244 245 248 251 254 255 257 258 256 251 248 245 244 243 237 233 241 243 248 236 245 257 257 260 253 259 267 272 269 267 267 266 261 257 255 257 262 262
228 235 241 242 242 244 246 249 252 254 255 258 259 260 252 247 245 243 245 242 238 236 245 248 241 244 249 256 248 243 252 255 258 255 256 253 248 250 248 249 255 262 264
231 235 238 241 244 247 249 252 255 256 256 257 260 256 250 246 245 243 244 244 242 243 244 254 258 255 255 251 249 257 248 250 250 248 245 243 246 251 252 253 256 259 265
231 234 237 241 245 249 252 254 254 252 251 251 250 250 249 242 243 240 242 243 245 249 245 250 259 259 261 246 240 250 247 252 253 253 251 253 254 252 253 257 261 263 265
231 235 239 242 245 246 250 251 248 247 248 249 248 248 245 243 245 242 240 243 243 244 244 246 248 255 246 228 228 240 248 248 251 254 256 257 260 259 258 264 271 271 269
236 238 240 241 242 245 249 249 248 247 250 250 247 247 245 242 244 243 241 245 243 240 239 241 245 240 232 220 227 243 245 242 243 250 258 259 258 256 257 260 269 272 270
239 239 239 241 244 245 247 248 249 249 248 249 248 247 246 244 243 240 242 247 243 238 235 238 244 244 234 228 230 244 250 250 258 249 252 250 256 256 258 262 270 272 269
238 239 241 242 244 245 246 247 247 249 248 248 249 247 245 246 245 243 239 240 243 240 238 243 245 247 250 250 256 252 255 256 257 255 261 258 253 258 260 268 269 265 264
239 239 240 244 246 246 245 245 246 248 251 252 250 250 250 251 249 246 246 244 237 238 240 245 251 248 250 246 245 255 257 258 260 261 265 272 268 265 263 264 263 263 268
242 244 244 245 248 250 250 248 247 247 251 253 255 255 256 256 255 257 251 243 237 238 242 245 253 262 261 255 250 251 254 265 268 267 268 268 272 278 273 263 259 261 261
242 244 247 248 250 251 251 250 246 249 253 256 259 261 261 265 268 265 252 250 249 249 249 249 253 255 258 260 259 259 256 255 262 272 272 267 273 280 286 277 264 253 254